SCP
0 0 -0 0 0 0 0 0 0 0 0 0 0 0 0 0 0 -0 -0 -0 -0 -0 -0 -0 -0 -0 -0 -0 -0 -0 -0 -0
0 -0 0 0 0 0 0 0 0 -0 0 0 0 0 0 0 0 0 0 0 -0 -0 -0 -0 -0 -0 -0 -0 -0 -0 -0 -0
0 0 -0 0 0 0 -0 0 0 0 0 0 0 1 0 0 0 0 0 0 0 0 -0 -0 -0 -0 -0 -0 -0 -0 -0 -0
0 0 -0 0 0 0 0 0 0 0 -0 0 0 0 0 0 0 0 0 0 0 0 0 0 0 0 -0 -0 -0 -0 -0 -0
0 0 0 0 0 0 0 0 0 0 -0 0 0 0 0 0 0 0 0 0 0 0 0 0 0 0 0 0 -0 -0 -0 -0
0 0 0 0 0 0 0 0 0 0 0 0 0 0 0 0 0 0 0 0 0 0 0 0 0 0 0 0 0 0 -0 -0
0 0 0 0 0 0 0 0 0 0 0 0 0 0 0 0 0 0 0 0 0 0 0 0 0 0 0 0 0 0 0 0
0 0 0 0 0 0 0 0 0 0 0 0 0 0 0 0 0 0 0 0 0 0 0 0 0 0 0 0 0 0 0 0
0 0 0 0 0 0 0 0 0 0 0 0 0 0 0 0 0 0 0 0 0 0 0 0 0 0 0 0 0 0 0 0
0 0 0 0 0 0 0 0 0 0 0 0 -0 -0 0 0 0 0 0 0 0 0 0 0 0 0 0 0 0 0 0 0
0 0 0 0 0 0 0 0 0 0 0 0 -0 -0 0 0 0 0 0 0 0 0 1 1 0 0 0 0 0 0 0 0
0 0 0 0 0 0 0 0 0 0 0 0 0 -0 0 0 0 0 0 0 0 1 1 0 0 0 0 0 0 0 0 0
0 0 0 0 0 0 0 0 0 0 0 0 0 0 0 0 0 0 1 1 1 1 1 1 0 0 0 0 0 0 0 0
0 0 0 0 0 0 0 0 0 0 0 0 0 0 0 1 1 1 0 1 1 0 1 1 0 0 0 0 0 0 0 0
0 0 0 0 0 0 0 0 0 0 0 0 0 0 0 0 1 1 0 1 1 2 1 1 1 0 -0 1 0 0 0 0
0 0 0 0 0 0 0 0 0 0 0 0 0 0 0 0 0 1 1 1 1 2 2 1 1 0 0 0 0 0 0 0
0 0 0 0 0 0 0 0 0 0 0 0 0 0 2 3 3 1 1 2 1 2 3 2 2 1 1 0 0 0 0 0
0 0 0 0 0 0 0 0 0 0 0 0 0 0 1 1 2 4 2 2 2 2 3 3 3 2 1 0 0 0 0 0
0 0 0 0 0 0 0 0 0 0 0 0 0 0 0 2 2 4 1 3 3 3 2 3 3 4 4 1 0 0 0 0
0 0 0 0 0 0 0 0 0 0 0 0 0 0 0 1 5 4 7 6 3 2 4 3 5 4 3 1 1 0 0 0
Wind_Speed_500mb
25 27 33 8 6 15 22 14 7 8 4 2 8 15 23 22 45 50 43 45 49 47 44 41 38 36 34 30 27 26 24 22
23 39 33 26 19 6 5 12 16 18 14 13 11 14 16 35 45 47 45 44 48 48 44 41 39 36 33 31 28 25 24 22
36 40 44 6 21 1 16 14 16 15 14 12 12 14 22 41 47 47 45 43 51 49 45 41 39 37 34 31 28 26 24 21
34 44 39 12 14 9 18 17 16 15 20 16 19 19 28 40 49 46 46 41 54 51 47 44 41 38 35 32 29 25 21 18
46 45 31 21 25 8 20 21 13 11 20 22 19 21 35 44 47 48 45 39 54 53 49 44 41 38 35 31 28 25 22 18
43 42 44 25 19 25 17 23 18 15 12 18 33 30 38 45 48 47 46 41 45 50 49 46 43 40 35 32 29 26 23 19
49 49 45 30 18 28 15 31 19 14 15 9 24 33 39 48 48 47 47 44 43 42 43 41 38 43 39 36 32 28 24 20
44 45 40 44 24 35 19 33 17 23 16 5 25 36 43 49 52 52 51 50 46 43 42 40 35 40 40 37 33 28 23 20
51 56 53 34 35 24 22 27 32 19 14 16 30 39 42 45 47 50 49 49 48 47 43 42 37 34 33 29 27 24 22 20
62 45 35 30 46 50 32 37 12 11 7 16 28 39 44 47 46 48 50 48 51 49 47 44 37 33 32 29 27 25 24 25
44 52 49 41 44 50 36 42 47 11 15 20 23 35 41 44 44 45 50 51 51 50 48 47 41 33 31 30 28 24 24 23
53 39 45 46 46 48 54 48 46 38 41 27 26 31 37 46 49 51 49 51 52 53 51 48 41 38 35 32 29 26 24 22
40 48 43 43 46 53 62 56 48 66 36 41 29 26 38 46 47 48 49 49 53 52 49 49 42 39 34 32 28 25 23 29
42 45 47 41 49 47 62 67 67 49 58 46 40 33 31 42 48 46 47 53 57 51 50 49 44 39 30 28 29 28 27 23
49 42 45 47 49 42 55 59 70 67 56 73 53 40 33 41 45 46 50 56 59 60 57 55 49 42 34 36 32 30 26 22
41 33 33 36 47 42 49 48 58 62 48 54 68 54 52 41 41 49 52 62 61 66 57 59 53 45 37 32 33 29 27 26
28 33 33 32 37 42 43 50 37 40 48 62 59 77 65 61 40 44 44 63 68 70 71 69 65 55 47 40 39 33 29 38
39 38 29 35 42 41 40 38 46 46 52 49 59 64 55 42 60 69 64 63 63 64 76 75 71 57 46 41 38 35 34 40
43 43 43 41 46 46 47 55 57 54 57 54 60 60 57 60 63 73 70 53 61 73 72 76 66 57 53 43 41 41 43 42
38 35 35 39 36 45 47 51 51 59 60 57 57 60 61 59 63 67 73 69 64 75 79 74 66 61 62 58 54 47 43 45
Wind_Direction_500mb
245 245 260 358 69 36 104 124 196 229 253 170 65 127 139 145 153 160 162 163 177 172 173 173 175 176 174 172 172 170 167 169
256 259 249 296 91 18 175 160 190 216 182 182 116 142 160 154 159 164 162 164 174 173 175 176 175 177 177 176 176 174 172 173
252 243 263 142 287 48 235 195 188 195 156 148 157 158 164 159 163 162 163 173 175 175 176 177 177 179 181 182 180 180 178 178
247 248 243 220 260 277 261 199 176 211 243 109 144 159 163 162 163 163 165 173 177 177 178 179 180 183 185 187 187 186 187 188
258 262 259 216 208 264 238 258 197 177 237 112 153 161 163 164 164 165 169 171 176 178 181 182 183 186 188 192 194 194 198 201
249 260 261 234 197 242 254 264 98 168 196 241 165 158 162 166 166 170 172 176 172 178 183 185 186 189 191 195 199 202 205 210
246 252 257 265 248 241 238 263 176 205 246 51 135 160 165 169 172 174 176 179 177 177 178 176 184 191 193 196 202 208 212 217
248 258 263 260 248 251 187 225 202 210 207 204 170 173 177 179 180 181 182 182 181 180 181 176 182 194 193 199 203 206 215 221
245 259 269 296 296 252 253 227 216 192 142 188 186 190 189 193 189 187 185 183 183 179 181 180 186 189 183 191 192 197 196 211
268 273 262 256 269 272 252 255 268 149 202 191 196 199 202 200 194 188 185 186 183 181 179 181 186 185 185 189 192 196 197 193
254 261 273 261 252 259 246 249 264 231 228 190 204 206 209 207 199 195 189 185 183 182 177 179 183 183 188 188 193 195 193 190
262 250 254 253 256 258 248 252 262 264 246 231 201 207 207 207 200 197 192 190 183 182 177 177 179 184 185 182 187 185 191 192
249 258 247 252 255 246 250 249 224 240 257 240 209 208 211 210 205 195 194 191 188 180 175 177 182 181 179 183 179 190 189 191
248 237 236 239 253 245 241 244 243 227 248 242 227 219 211 208 204 196 194 189 189 179 177 180 180 180 178 182 186 188 191 186
248 248 231 217 247 250 252 238 237 241 220 243 234 209 212 206 202 201 197 191 186 183 180 185 186 180 174 196 181 186 184 184
258 260 206 249 256 243 257 247 245 236 231 227 250 210 201 205 197 203 198 205 188 184 196 189 193 177 176 193 180 187 184 186
273 245 253 250 252 252 238 251 250 252 235 238 216 248 189 185 190 200 201 210 192 186 199 193 194 180 182 185 182 184 183 201
271 265 266 252 252 260 264 253 253 252 247 236 236 224 219 193 190 202 206 206 199 197 202 199 198 181 186 186 185 182 183 201
258 260 237 253 259 253 253 252 250 248 249 247 246 235 204 190 191 188 178 206 207 208 210 204 196 180 185 186 186 182 193 200
266 267 255 238 255 251 237 238 243 241 241 246 242 250 204 206 188 194 204 203 228 211 213 206 196 186 190 192 191 193 193 199
Wind_Speed_850mb
25 27 33 8 6 15 22 14 7 8 4 2 8 15 23 22 45 50 43 45 49 47 44 41 38 36 34 30 27 26 24 22
23 39 33 26 19 6 5 12 16 18 14 13 11 14 16 35 45 47 45 44 48 48 44 41 39 36 33 31 28 25 24 22
36 40 44 6 21 1 16 14 16 15 14 12 12 14 22 41 47 47 45 43 51 49 45 41 39 37 34 31 28 26 24 21
34 44 39 12 14 9 18 17 16 15 20 16 19 19 28 40 49 46 46 41 54 51 47 44 41 38 35 32 29 25 21 18
46 45 31 21 25 8 20 21 13 11 20 22 19 21 35 44 47 48 45 39 54 53 49 44 41 38 35 31 28 25 22 18
43 42 44 25 19 25 17 23 18 15 12 18 33 30 38 45 48 47 46 41 45 50 49 46 43 40 35 32 29 26 23 19
49 49 45 30 18 28 15 31 19 14 15 9 24 33 39 48 48 47 47 44 43 42 43 41 38 43 39 36 32 28 24 20
44 45 40 44 24 35 19 33 17 23 16 5 25 36 43 49 52 52 51 50 46 43 42 40 35 40 40 37 33 28 23 20
51 56 53 34 35 24 22 27 32 19 14 16 30 39 42 45 47 50 49 49 48 47 43 42 37 34 33 29 27 24 22 20
62 45 35 30 46 50 32 37 12 11 7 16 28 39 44 47 46 48 50 48 51 49 47 44 37 33 32 29 27 25 24 25
44 52 49 41 44 50 36 42 47 11 15 20 23 35 41 44 44 45 50 51 51 50 48 47 41 33 31 30 28 24 24 23
53 39 45 46 46 48 54 48 46 38 41 27 26 31 37 46 49 51 49 51 52 53 51 48 41 38 35 32 29 26 24 22
40 48 43 43 46 53 62 56 48 66 36 41 29 26 38 46 47 48 49 49 53 52 49 49 42 39 34 32 28 25 23 29
42 45 47 41 49 47 62 67 67 49 58 46 40 33 31 42 48 46 47 53 57 51 50 49 44 39 30 28 29 28 27 23
49 42 45 47 49 42 55 59 70 67 56 73 53 40 33 41 45 46 50 56 59 60 57 55 49 42 34 36 32 30 26 22
41 33 33 36 47 42 49 48 58 62 48 54 68 54 52 41 41 49 52 62 61 66 57 59 53 45 37 32 33 29 27 26
28 33 33 32 37 42 43 50 37 40 48 62 59 77 65 61 40 44 44 63 68 70 71 69 65 55 47 40 39 33 29 38
39 38 29 35 42 41 40 38 46 46 52 49 59 64 55 42 60 69 64 63 63 64 76 75 71 57 46 41 38 35 34 40
43 43 43 41 46 46 47 55 57 54 57 54 60 60 57 60 63 73 70 53 61 73 72 76 66 57 53 43 41 41 43 42
38 35 35 39 36 45 47 51 51 59 60 57 57 60 61 59 63 67 73 69 64 75 79 74 66 61 62 58 54 47 43 45
Wind_Direction_850mb
245 245 260 358 69 36 104 124 196 229 253 170 65 127 139 145 153 160 162 163 177 172 173 173 175 176 174 172 172 170 167 169
256 259 249 296 91 18 175 160 190 216 182 182 116 142 160 154 159 164 162 164 174 173 175 176 175 177 177 176 176 174 172 173
252 243 263 142 287 48 235 195 188 195 156 148 157 158 164 159 163 162 163 173 175 175 176 177 177 179 181 182 180 180 178 178
247 248 243 220 260 277 261 199 176 211 243 109 144 159 163 162 163 163 165 173 177 177 178 179 180 183 185 187 187 186 187 188
258 262 259 216 208 264 238 258 197 177 237 112 153 161 163 164 164 165 169 171 176 178 181 182 183 186 188 192 194 194 198 201
249 260 261 234 197 242 254 264 98 168 196 241 165 158 162 166 166 170 172 176 172 178 183 185 186 189 191 195 199 202 205 210
246 252 257 265 248 241 238 263 176 205 246 51 135 160 165 169 172 174 176 179 177 177 178 176 184 191 193 196 202 208 212 217
248 258 263 260 248 251 187 225 202 210 207 204 170 173 177 179 180 181 182 182 181 180 181 176 182 194 193 199 203 206 215 221
245 259 269 296 296 252 253 227 216 192 142 188 186 190 189 193 189 187 185 183 183 179 181 180 186 189 183 191 192 197 196 211
268 273 262 256 269 272 252 255 268 149 202 191 196 199 202 200 194 188 185 186 183 181 179 181 186 185 185 189 192 196 197 193
254 261 273 261 252 259 246 249 264 231 228 190 204 206 209 207 199 195 189 185 183 182 177 179 183 183 188 188 193 195 193 190
262 250 254 253 256 258 248 252 262 264 246 231 201 207 207 207 200 197 192 190 183 182 177 177 179 184 185 182 187 185 191 192
249 258 247 252 255 246 250 249 224 240 257 240 209 208 211 210 205 195 194 191 188 180 175 177 182 181 179 183 179 190 189 191
248 237 236 239 253 245 241 244 243 227 248 242 227 219 211 208 204 196 194 189 189 179 177 180 180 180 178 182 186 188 191 186
248 248 231 217 247 250 252 238 237 241 220 243 234 209 212 206 202 201 197 191 186 183 180 185 186 180 174 196 181 186 184 184
258 260 206 249 256 243 257 247 245 236 231 227 250 210 201 205 197 203 198 205 188 184 196 189 193 177 176 193 180 187 184 186
273 245 253 250 252 252 238 251 250 252 235 238 216 248 189 185 190 200 201 210 192 186 199 193 194 180 182 185 182 184 183 201
271 265 266 252 252 260 264 253 253 252 247 236 236 224 219 193 190 202 206 206 199 197 202 199 198 181 186 186 185 182 183 201
258 260 237 253 259 253 253 252 250 248 249 247 246 235 204 190 191 188 178 206 207 208 210 204 196 180 185 186 186 182 193 200
266 267 255 238 255 251 237 238 243 241 241 246 242 250 204 206 188 194 204 203 228 211 213 206 196 186 190 192 191 193 193 199